Regional Weather Roundup
Issued by NWS Cleveland, OH

Home | Current Version | Previous Version | Text Only | Print | Product List | Glossary Off
Versions: 1 2 3 4 5 6 7 8 9 10 11 12 13 14 15 16 17 18 19 20 21 22 23 24 25 26 27 28 29 30 31 32 33 34 35 36 37 38 39 40 41 42 43 44 45 46 47 48 49 50

000
ASUS41 KCLE 271010
RWRCLE
OHIO REGIONAL WEATHER ROUNDUP
NATIONAL WEATHER SERVICE WILMINGTON, OH
600 AM EDT SAT AUG 27 2016

NOTE: "FAIR" INDICATES FEW OR NO CLOUDS BELOW 12,000 FEET WITH NO
SIGNIFICANT WEATHER AND/OR OBSTRUCTIONS TO VISIBILITY.

OHZ001>008-015>018-024>027-034-035-043-044-271100-
   NORTHWEST OHIO

CITY           SKY/WX    TMP DP  RH WIND       PRES   REMARKS
DEFIANCE       FAIR      70  61  73 E5        30.12S
FINDLAY        FAIR      71  57  61 E7        30.12S
TOLEDO EXPRESS FAIR      67  65  93 CALM      30.12F
TOLEDO EXEC    FAIR      68  65  90 SE6       30.13F
LIMA           FAIR      69  64  84 E7        30.12F
$$

OHZ009>014-019>023-028>033-038-089-271100-
   NORTHEAST OHIO

CITY           SKY/WX    TMP DP  RH WIND       PRES   REMARKS
CLE-HOPKINS    FAIR      67  58  72 SE5       30.18S
CLE-LAKEFRONT  FAIR      69  60  73 S3        30.15F
CUY CO. ARPT   NOT AVBL
LORAIN-ELYRIA  FAIR      64  58  80 S5        30.16S
ASHTABULA      FAIR      60  60 100 E3        30.21R
AKRON-CANTON   FAIR      67  60  78 E5        30.18S
WOOSTER        FAIR      64  60  87 E5        30.18S
MANSFIELD      FAIR      68  61  78 E7        30.17S
YOUNGSTOWN     FAIR      62  60  93 E7        30.19S
$$

OHZ042-051>053-060>062-070>072-077>081-271100-
  SOUTHWEST OHIO

CITY           SKY/WX    TMP DP  RH WIND       PRES   REMARKS
CINC-COVINGTON CLOUDY    74  73  97 CALM      30.09F
CINC-LUNKEN    NOT AVBL
HAMILTON       FAIR      69  67  93 CALM      30.10F
DAYTON         FAIR      72  68  87 E7        30.12S
WRIGHT-PAT AFB FAIR      70  70  98 NE2       30.11S
DAYTON GENERAL FAIR      74  69  85 E6        30.10S
WILMINGTON     FAIR      71  70  96 E3        30.12S
$$

OHZ036-037-039>041-045>050-054>059-063>069-073>076-082>088-271100-
  CENTRAL AND SOUTHEAST OHIO

CITY           SKY/WX    TMP DP  RH WIND       PRES   REMARKS
COLUMBUS       FAIR      72  63  73 E3        30.12S
OSU AIRPORT    FAIR      71  64  78 E3        30.12F
BOLTON FIELD   FAIR      70  65  85 CALM      30.13S
RICKENBACK AFB FAIR      70  67  89 NE3       30.11S
NEWARK         FAIR      69  66  90 NE3       30.13F
MARION         FAIR      67  60  78 E3        30.14F
LANCASTER      FAIR      69  67  93 CALM      30.13S
ZANESVILLE     FAIR      69  66  90 CALM      30.15S
NEW PHILLY     FAIR      67  62  84 CALM      30.17S
$$




USA.gov is the U.S. government's official web portal to all federal, state and local government web resources and services.